Flight Track Log - Related Links

Times and Time Zones

All times are in EDT time to prevent confusion due to time zone crossing. See the N682RW flight status page for this flight to view local times or setup timezone preferences in your user account.

Time Position Orientation Groundspeed Altitude Reporting Facility
EDT Latitude Longitude Course Direction KTS MPH feet Rate Location/Type
Tue 12:37:31 AM 41.5494 -81.7789 310° West 274 315 2,000  Level Cleveland Center
Tue 12:38:50 AM 41.6067 -81.8689 310° West 240 276 4,800 2,671 Climbing Cleveland Center
Tue 12:40:24 AM 41.6194 -82.0247 276° West 289 333 9,700 2,688 Climbing Cleveland Center
Tue 12:41:24 AM 41.6367 -82.1361 282° West 294 338 11,700 1,150 Climbing Cleveland Center
Tue 12:42:24 AM 41.6622 -82.2508 287° West 323 372 12,000 162 Climbing Cleveland Center
Tue 12:43:15 AM 41.7131 -82.3439 306° West 341 392 12,000  Level Cleveland Center
Tue 12:44:22 AM 41.7756 -82.4625 305° West 336 387 12,000  Level Cleveland Center
Tue 12:45:23 AM 41.8258 -82.5728 301° West 340 391 12,000  Level Cleveland Center
Tue 12:46:23 AM 41.8761 -82.6747 304° West 333 383 12,000 -50 Level Cleveland Center
Tue 12:47:24 AM 41.9225 -82.7600 306° West 337 388 11,900 -694 Descending Cleveland Center
Tue 12:48:24 AM 42.0025 -82.8297 327° Northwest 285 328 10,600 -1,350 Descending Cleveland Center
Tue 12:49:24 AM 42.0558 -82.8764 327° Northwest 286 329 9,200 -1,450 Descending Cleveland Center
Tue 12:50:24 AM 42.1192 -82.9347 326° Northwest 279 321 7,700 -1,550 Descending Cleveland Center
Tue 12:51:24 AM 42.1806 -82.9931 325° Northwest 279 321 6,100 -1,500 Descending Cleveland Center
Tue 12:52:24 AM 42.2400 -83.0486 325° Northwest 274 315 4,700 -1,171 Descending Cleveland Center
Tue 12:53:27 AM 42.3033 -83.1042 327° Northwest 198 228 3,700 -823 Descending Cleveland Center
Tue 12:54:28 AM 42.3483 -83.1456 326° Northwest 181 208 3,000 -344 Descending Cleveland Center
Tue 12:55:29 AM 42.3633 -83.2106 287° West 176 203 3,000  Level Cleveland Center
Tue 12:56:29 AM 42.3311 -83.2544 225° Southwest 141 162 3,000 -298 Level Cleveland Center
Tue 12:57:30 AM 42.2972 -83.2753 204° Southwest 134 154 2,400 -639 Descending Cleveland Center
Tue 12:58:31 AM 42.2675 -83.3022 214° Southwest 124 143 1,700 -645 Descending Cleveland Center
Tue 12:59:31 AM 42.2358 -83.3233 206° Southwest 121 139 1,100 -600 Descending Cleveland Center

Login

Don't have an account? Register now (free) for customized features, flight alerts, and more!